Temp
52 52 54 55 55 55 53 53 52 50 50 50 50 51 49 49 49 50 49 50 51 51
50 50 51 52 53 53 54 53 52 51 48 50 49 49 48 47 47 47 48 49 49 49
47 47 48 50 49 49 51 51 50 49 48 49 49 48 47 47 47 47 47 47 47 47
46 46 46 46 46 46 48 48 48 48 47 46 46 47 46 46 47 45 45 45 45 44
44 44 44 44 45 45 44 46 45 46 45 45 45 45 44 44 45 44 43 44 43 44
41 41 41 42 42 43 44 43 44 42 42 42 43 43 43 43 44 44 43 43 40 41
39 39 39 39 39 39 40 40 41 41 41 42 42 41 41 40 42 43 42 43 41 41
38 39 38 37 37 37 37 37 38 38 38 38 39 39 39 39 39 40 40 40 40 39
36 34 34 35 34 35 35 35 35 34 35 36 37 39 40 39 37 37 38 37 38 38
32 30 31 33 33 34 34 35 34 33 34 34 36 39 39 39 37 36 37 37 38 36
30 28 29 31 30 31 34 33 34 34 34 34 35 38 39 38 37 37 38 38 37 37
28 26 26 25 27 29 30 31 31 32 32 32 33 36 37 37 35 35 35 36 37 37
27 24 22 24 24 26 27 28 31 30 32 32 31 34 36 36 35 33 34 34 34 34
25 22 22 22 23 22 23 25 26 28 30 31 32 32 34 35 34 34 33 33 32 33
MSLP
1012.05 1011.77 1011.50 1011.38 1011.41 1011.17 1011.66 1011.69 1012.22 1012.56 1012.48 1012.70 1013.01 1013.49 1014.40 1014.96 1015.46 1015.84 1015.91 1015.80 1015.95 1016.22
1012.55 1012.01 1011.84 1011.66 1011.53 1011.08 1011.06 1011.27 1011.66 1012.05 1012.42 1012.28 1012.61 1012.92 1013.14 1013.49 1014.04 1014.66 1015.00 1015.32 1015.66 1015.88
1013.38 1012.79 1012.05 1011.73 1011.54 1011.50 1011.15 1011.05 1011.16 1011.43 1011.64 1012.08 1011.97 1012.24 1012.85 1012.95 1013.20 1013.39 1013.64 1014.06 1014.39 1014.84
1013.52 1012.98 1012.71 1011.95 1011.58 1011.62 1011.58 1011.18 1010.84 1010.92 1010.93 1011.04 1011.43 1012.08 1011.97 1012.04 1012.52 1012.53 1012.64 1013.01 1013.33 1013.71
1013.78 1013.70 1013.09 1012.54 1012.11 1011.49 1011.31 1011.21 1011.05 1010.64 1010.60 1010.58 1010.50 1010.99 1011.39 1011.50 1011.53 1012.13 1012.21 1012.21 1013.01 1012.82
1014.37 1014.00 1013.70 1013.01 1012.20 1011.72 1011.26 1011.11 1010.70 1010.66 1010.08 1010.04 1010.30 1010.05 1010.40 1010.63 1010.94 1011.01 1011.62 1011.72 1011.97 1012.17
1014.32 1014.15 1013.89 1013.31 1012.97 1012.05 1011.69 1011.18 1010.58 1010.16 1009.87 1009.52 1009.41 1009.50 1009.70 1010.23 1010.29 1010.33 1010.47 1010.98 1011.12 1011.32
1014.63 1014.28 1013.77 1013.44 1013.39 1012.85 1011.85 1011.14 1010.56 1010.06 1009.59 1009.18 1008.77 1008.85 1009.29 1009.41 1009.59 1009.78 1009.80 1009.72 1009.91 1010.06
1014.90 1014.45 1013.97 1013.38 1013.00 1012.45 1011.67 1010.81 1010.18 1009.93 1009.50 1008.74 1008.22 1008.10 1008.34 1008.65 1008.49 1008.73 1008.67 1008.55 1008.87 1009.24
1014.87 1014.49 1013.77 1013.27 1012.70 1012.04 1011.28 1010.51 1009.82 1009.20 1008.85 1008.37 1007.41 1007.29 1007.26 1007.61 1007.74 1007.52 1007.20 1007.21 1007.35 1007.82
1014.57 1014.10 1013.74 1013.29 1012.91 1011.96 1011.25 1010.33 1009.47 1008.89 1008.06 1007.38 1006.94 1006.90 1006.61 1006.64 1006.66 1006.69 1006.19 1005.41 1005.89 1006.30
1014.39 1014.06 1013.62 1012.91 1012.10 1011.29 1010.73 1009.65 1008.71 1007.96 1007.25 1006.43 1005.83 1006.09 1005.94 1005.76 1005.45 1005.13 1004.63 1004.46 1004.64 1005.21
1014.21 1013.98 1013.50 1012.82 1012.01 1011.00 1010.22 1008.93 1007.78 1006.93 1006.39 1005.85 1005.18 1005.01 1004.70 1004.50 1004.26 1003.85 1003.27 1003.41 1003.71 1003.94
1013.36 1013.13 1012.88 1012.22 1011.36 1010.54 1009.58 1008.57 1007.42 1006.43 1005.53 1005.12 1004.50 1003.85 1003.76 1003.25 1003.09 1002.78 1002.47 1002.11 1002.18 1003.07
Wind_Speed
8 7 8 10 9 9 9 10 13 14 16 17 16 16 15 12 12 13 12 15 11 9
11 9 9 12 11 9 11 9 12 14 16 17 16 17 17 13 15 14 14 14 13 10
14 12 10 10 11 12 12 12 12 14 15 16 16 17 17 15 15 16 13 12 15 13
14 14 13 10 10 11 12 11 13 13 14 15 16 16 16 17 16 18 18 16 16 17
13 14 14 13 13 11 11 11 12 12 13 13 15 16 17 18 16 18 19 18 17 17
14 14 15 15 15 14 12 12 12 12 12 12 14 15 16 18 19 18 18 17 18 18
13 13 14 14 15 14 13 12 12 11 12 13 13 14 14 15 18 18 17 18 18 18
12 12 12 12 12 12 12 11 11 11 11 12 12 10 14 15 16 18 18 18 18 19
11 11 12 12 12 12 11 10 9 10 12 13 10 18 22 20 15 17 19 19 18 18
9 10 12 12 13 14 13 13 12 10 10 14 13 20 23 24 17 16 19 20 19 17
11 12 14 12 13 13 13 13 13 13 12 12 11 21 23 24 18 19 21 20 20 19
10 13 15 15 16 14 13 13 13 12 14 14 14 19 23 21 16 19 22 17 18 20
10 11 13 15 16 16 14 16 13 15 14 17 18 21 23 20 12 17 14 16 17 25
13 12 13 15 14 15 15 16 16 16 15 16 16 17 25 25 15 14 14 14 13 12
Wind_Direction
303 286 281 269 257 246 243 232 227 218 214 211 206 202 201 205 210 211 214 210 208 203
343 315 290 281 268 262 251 248 234 224 221 217 215 209 201 203 205 207 208 214 212 216
1 347 321 301 286 277 266 249 233 227 222 225 218 211 211 212 210 207 208 210 206 204
359 0 352 337 312 286 279 263 247 237 224 219 218 221 218 219 219 214 209 205 204 205
358 354 355 355 342 323 293 277 258 247 235 227 219 218 221 224 218 220 218 210 213 208
355 353 347 345 345 340 319 294 273 257 242 234 232 222 223 225 226 222 224 217 210 208
349 345 340 340 336 336 326 305 286 265 255 248 238 232 229 228 230 227 223 223 216 210
339 341 335 332 328 323 320 310 299 279 262 254 244 236 231 229 230 233 228 223 217 213
328 333 330 324 323 321 319 318 306 287 275 261 248 242 239 234 225 229 228 224 224 222
316 316 323 315 321 321 320 317 308 293 274 273 265 258 249 240 236 232 227 225 221 216
313 312 315 303 308 308 311 310 308 299 289 275 267 265 254 245 239 236 236 226 225 220
304 305 309 307 306 308 301 300 297 296 293 284 277 266 263 253 240 240 238 236 228 225
281 283 288 295 298 298 297 296 295 290 287 281 276 270 266 259 249 246 240 233 234 226
283 282 284 286 289 294 293 291 288 283 279 273 265 263 258 254 250 246 242 234 223 224